Date String (YYYY-MM-DD hh:mm:ss) UTC,Instrument flags,Ambient pressure (hPa),Sample flow (lpm),Bypass flow (lpm),Sample temperature (°C),Ambient temperature (°C),ASC tube jacket temperature (°C),LED temperature (°C),Box temperature (°C),Sample RH (%),Span deviation,Mass concentration (μg/m³),Mass concentration (μg/m³),Mass concentration (μg/m³)
DateTimeUTC,F1_M11,P_M11,Q1_M11,Q2_M11,T1_M11,T2_M11,T3_M11,T4_M11,T5_M11,U1_M11,ZSPAN_M11,X0_M11,X2_M11,X1_M11
2022-05-11 06:00:00,,0823.5,5.01,0.00,28.4,27.5,00.0,37.5,30.1,13.6,0000.0,0018.19,0005.00,0002.34
2022-05-11 06:01:00,,0823.4,4.99,0.00,28.3,27.5,00.0,37.5,30.0,13.6,0000.0,0018.09,0004.98,0002.35
2022-05-11 06:02:00,,0823.5,5.01,0.00,28.3,27.5,00.0,37.5,30.0,13.6,0000.0,0016.85,0004.89,0002.33
2022-05-11 06:03:00,,0823.4,5.00,0.00,28.3,27.4,00.0,37.4,30.0,13.6,0000.0,0017.17,0004.86,0002.33
2022-05-11 06:04:00,,0823.3,5.00,0.00,28.3,27.4,00.0,37.4,30.0,13.7,0000.0,0017.31,0004.91,0002.35
2022-05-11 06:05:00,,0823.3,5.00,0.00,28.3,27.4,00.0,37.4,30.0,13.6,0000.0,0017.02,0004.91,0002.37
2022-05-11 06:06:00,,0823.3,4.99,0.00,28.3,27.4,00.0,37.4,30.0,13.7,0000.0,0016.36,0004.92,0002.37
2022-05-11 06:07:00,,0823.3,5.01,0.00,28.3,27.4,00.0,37.4,30.0,13.7,0000.0,0017.09,0004.95,0002.38
2022-05-11 06:08:00,,0823.3,5.01,0.00,28.2,27.4,00.0,37.4,30.0,13.7,0000.0,0017.47,0005.08,0002.40
2022-05-11 06:09:00,,0823.3,4.99,0.00,28.2,27.4,00.0,37.3,29.9,13.6,0000.0,0018.26,0005.16,0002.41
2022-05-11 06:10:00,,0823.3,5.01,0.00,28.2,27.4,00.0,37.3,29.9,13.7,0000.0,0018.32,0005.13,0002.42
2022-05-11 06:11:00,,0823.3,5.01,0.00,28.2,27.3,00.0,37.3,29.9,13.6,0000.0,0017.69,0005.12,0002.43
2022-05-11 06:12:00,,0823.4,4.99,0.00,28.2,27.3,00.0,37.3,29.9,13.7,0000.0,0017.31,0005.13,0002.44
2022-05-11 06:13:00,,0823.4,5.00,0.00,28.2,27.3,00.0,37.3,29.9,13.7,0000.0,0018.27,0005.19,0002.45
2022-05-11 06:14:00,,0823.5,5.00,0.00,28.1,27.3,00.0,37.3,29.9,13.7,0000.0,0017.91,0005.24,0002.46
2022-05-11 06:15:00,,0823.5,5.00,0.00,28.1,27.3,00.0,37.3,29.9,13.6,0000.0,0018.58,0005.23,0002.47
2022-05-11 06:16:00,,0823.6,5.00,0.00,28.1,27.4,00.0,37.3,29.9,13.6,0000.0,0019.14,0005.19,0002.47
2022-05-11 06:17:00,,0823.7,5.00,0.00,28.1,27.3,00.0,37.2,29.9,13.6,0000.0,0019.15,0005.16,0002.47
2022-05-11 06:18:00,,0823.6,5.01,0.00,28.1,27.3,00.0,37.2,29.9,13.6,0000.0,0019.04,0005.15,0002.45
2022-05-11 06:19:00,,0823.5,5.01,0.00,28.1,27.2,00.0,37.2,29.8,13.6,0000.0,0018.79,0005.08,0002.43
2022-05-11 06:20:00,,0823.5,4.99,0.00,28.1,27.3,00.0,37.2,29.8,13.6,0000.0,0019.10,0005.14,0002.42
2022-05-11 06:21:00,,0823.3,5.01,0.00,28.1,27.2,00.0,37.2,29.8,13.6,0000.0,0018.55,0005.17,0002.43
2022-05-11 06:22:00,,0823.3,5.00,0.00,28.1,27.2,00.0,37.2,29.8,13.6,0000.0,0019.01,0005.24,0002.41
2022-05-11 06:23:00,,0823.4,4.99,0.00,28.1,27.2,00.0,37.2,29.8,13.7,0000.0,0019.29,0005.25,0002.40
2022-05-11 06:24:00,,0823.3,5.00,0.00,28.1,27.3,00.0,37.1,29.8,13.6,0000.0,0019.18,0005.28,0002.40
2022-05-11 06:25:00,,0823.3,4.99,0.00,28.1,27.3,00.0,37.1,29.8,13.6,0000.0,0018.80,0005.30,0002.40
2022-05-11 06:26:00,,0823.3,5.00,0.00,28.1,27.3,00.0,37.1,29.8,13.7,0000.0,0018.18,0005.29,0002.38
2022-05-11 06:27:00,,0823.2,5.00,0.00,28.0,27.3,00.0,37.1,29.8,13.6,0000.0,0017.72,0005.27,0002.37
2022-05-11 06:28:00,,0823.2,5.01,0.00,28.0,27.2,00.0,37.1,29.8,13.6,0000.0,0017.93,0005.28,0002.38
2022-05-11 06:29:00,,0823.3,4.99,0.00,28.0,27.2,00.0,37.1,29.8,13.6,0000.0,0017.58,0005.35,0002.40
2022-05-11 06:30:00,,0823.2,4.99,0.00,28.0,27.2,00.0,37.1,29.8,13.7,0000.0,0017.82,0005.39,0002.43
2022-05-11 06:31:00,,0823.2,5.01,0.00,28.0,27.2,00.0,37.1,29.7,13.6,0000.0,0017.11,0005.28,0002.43
2022-05-11 06:32:00,,0823.2,5.01,0.00,28.0,27.2,00.0,37.1,29.7,13.6,0000.0,0017.26,0005.22,0002.42
2022-05-11 06:33:00,,0823.2,4.99,0.00,28.0,27.2,00.0,37.1,29.7,13.5,0000.0,0017.09,0005.18,0002.42
2022-05-11 06:34:00,,0823.2,5.00,0.00,28.0,27.2,00.0,37.0,29.7,13.5,0000.0,0017.97,0005.18,0002.42
2022-05-11 06:35:00,,0823.2,5.00,0.00,28.0,27.2,00.0,37.0,29.7,13.6,0000.0,0017.95,0005.16,0002.41
2022-05-11 06:36:00,,0823.2,5.01,0.00,28.0,27.2,00.0,37.0,29.7,13.6,0000.0,0017.91,0005.06,0002.41
2022-05-11 06:37:00,,0823.2,5.00,0.00,28.0,27.1,00.0,37.0,29.7,13.6,0000.0,0018.63,0005.02,0002.40
2022-05-11 06:38:00,,0823.3,5.00,0.00,27.9,27.1,00.0,37.0,29.7,13.5,0000.0,0018.66,0005.08,0002.39
2022-05-11 06:39:00,,0823.2,5.00,0.00,27.9,27.1,00.0,37.0,29.7,13.5,0000.0,0018.08,0005.04,0002.37
2022-05-11 06:40:00,,0823.2,4.99,0.00,27.9,27.1,00.0,37.0,29.7,13.5,0000.0,0017.87,0004.98,0002.35
2022-05-11 06:41:00,,0823.2,5.00,0.00,27.9,27.1,00.0,37.0,29.7,13.5,0000.0,0018.33,0004.98,0002.33
2022-05-11 06:42:00,,0823.1,5.01,0.00,27.9,27.1,00.0,37.0,29.7,13.5,0000.0,0018.28,0005.04,0002.33
2022-05-11 06:43:00,,0823.1,4.99,0.00,27.9,27.2,00.0,37.0,29.7,13.5,0000.0,0017.57,0005.01,0002.32
2022-05-11 06:44:00,,0823.1,4.99,0.00,27.9,27.2,00.0,37.0,29.7,13.5,0000.0,0017.05,0004.92,0002.32
2022-05-11 06:45:00,,0823.1,5.01,0.00,27.9,27.2,00.0,37.0,29.7,13.5,0000.0,0015.71,0004.86,0002.30
2022-05-11 06:46:00,,0823.1,4.99,0.00,27.9,27.2,00.0,37.0,29.7,13.5,0000.0,0015.06,0004.76,0002.28
2022-05-11 06:47:00,,0823.1,5.01,0.00,27.9,27.2,00.0,37.0,29.7,13.5,0000.0,0014.86,0004.75,0002.27
2022-05-11 06:48:00,,0823.1,5.01,0.00,27.9,27.2,00.0,36.9,29.7,13.5,0000.0,0015.48,0004.74,0002.26
2022-05-11 06:49:00,,0823.1,4.99,0.00,27.9,27.2,00.0,36.9,29.7,13.4,0000.0,0015.44,0004.69,0002.27
2022-05-11 06:50:00,,0823.1,5.00,0.00,27.9,27.2,00.0,36.9,29.7,13.5,0000.0,0016.07,0004.74,0002.28
2022-05-11 06:51:00,,0823.1,5.00,0.00,27.9,27.1,00.0,36.9,29.7,13.5,0000.0,0017.34,0004.73,0002.29
2022-05-11 06:52:00,,0823.0,4.99,0.00,27.9,27.2,00.0,36.9,29.7,13.5,0000.0,0016.35,0004.67,0002.30
2022-05-11 06:53:00,,0823.1,5.01,0.00,27.9,27.1,00.0,36.9,29.6,13.5,0000.0,0016.73,0004.60,0002.29
2022-05-11 06:54:00,,0823.1,5.00,0.00,27.8,27.1,00.0,36.9,29.6,13.4,0000.0,0016.60,0004.62,0002.32
2022-05-11 06:55:00,,0823.1,5.00,0.00,27.8,27.1,00.0,36.9,29.6,13.5,0000.0,0016.72,0004.67,0002.31
2022-05-11 06:56:00,,0823.1,4.99,0.00,27.8,27.1,00.0,36.9,29.6,13.5,0000.0,0017.16,0004.78,0002.32
2022-05-11 06:57:00,,0823.0,5.00,0.00,27.8,27.1,00.0,36.9,29.6,13.4,0000.0,0017.26,0004.87,0002.32
2022-05-11 06:58:00,,0823.1,5.01,0.00,27.8,27.1,00.0,36.9,29.6,13.4,0000.0,0018.15,0004.93,0002.33
2022-05-11 06:59:00,,0823.1,5.00,0.00,27.8,27.1,00.0,36.9,29.6,13.5,0000.0,0017.34,0004.93,0002.34
